Hourly Weather Rutnica

Today, 16 April, Friday

Time Temperature Precipitation Wind Pressure Humidity
00:00 +1°C° 0.1 mm 5 mps 758 mmHg 84%
01:00 +1°C° 0.1 mm 5 mps 758 mmHg 82%
02:00 0°C° 0 mm 5 mps 758 mmHg 84%
03:00 0°C° 0 mm 4 mps 758 mmHg 86%
04:00 0°C° 0 mm 4 mps 758 mmHg 88%
05:00 +1°C° 0 mm 4 mps 758 mmHg 87%
06:00 +1°C° 0 mm 4 mps 758 mmHg 85%
07:00 +1°C° 0 mm 4 mps 758 mmHg 84%
08:00 +3°C° 0 mm 5 mps 758 mmHg 77%
09:00 +5°C° 0 mm 5 mps 758 mmHg 70%
10:00 +6°C° 0 mm 5 mps 758 mmHg 63%
11:00 +7°C° 0 mm 5 mps 758 mmHg 59%
12:00 +8°C° 0 mm 6 mps 758 mmHg 56%
13:00 +8°C° 0 mm 6 mps 757 mmHg 52%
14:00 +8°C° 0 mm 6 mps 757 mmHg 57%
15:00 +7°C° 0 mm 6 mps 757 mmHg 62%
16:00 +5°C° 0 mm 6 mps 757 mmHg 67%
17:00 +4°C° 0 mm 6 mps 757 mmHg 74%
18:00 +3°C° 0 mm 5 mps 757 mmHg 80%
19:00 +2°C° 0 mm 5 mps 758 mmHg 87%
20:00 +3°C° 0.1 mm 4 mps 757 mmHg 88%
21:00 +3°C° 0.1 mm 4 mps 757 mmHg 89%
22:00 +3°C° 0.1 mm 4 mps 757 mmHg 89%
23:00 +1°C° 0.3 mm 4 mps 757 mmHg 91%

Tomorrow, 17 April, Saturday

Time Temperature Precipitation Wind Pressure Humidity
00:00 +1°C° 0.3 mm 4 mps 757 mmHg 93%
01:00 +1°C° 0.3 mm 4 mps 756 mmHg 95%
02:00 +2°C° 0.1 mm 3 mps 756 mmHg 95%
03:00 +3°C° 0.1 mm 3 mps 756 mmHg 96%
04:00 +3°C° 0.1 mm 3 mps 756 mmHg 96%
05:00 +4°C° 0 mm 2 mps 756 mmHg 95%
06:00 +5°C° 0 mm 2 mps 757 mmHg 94%
07:00 +5°C° 0 mm 2 mps 757 mmHg 93%
08:00 +6°C° 0 mm 2 mps 757 mmHg 90%
09:00 +7°C° 0 mm 2 mps 757 mmHg 87%
10:00 +8°C° 0 mm 2 mps 757 mmHg 85%
11:00 +8°C° 0 mm 3 mps 757 mmHg 82%
12:00 +9°C° 0 mm 3 mps 757 mmHg 80%
13:00 +10°C° 0 mm 4 mps 757 mmHg 78%
14:00 +10°C° 0.1 mm 4 mps 757 mmHg 78%
15:00 +10°C° 0.1 mm 4 mps 756 mmHg 78%
16:00 +11°C° 0.1 mm 4 mps 756 mmHg 78%
17:00 +10°C° 0.1 mm 4 mps 756 mmHg 83%
18:00 +9°C° 0.1 mm 3 mps 756 mmHg 88%
19:00 +8°C° 0.1 mm 3 mps 756 mmHg 93%
20:00 +7°C° 0 mm 3 mps 757 mmHg 94%
21:00 +7°C° 0 mm 2 mps 757 mmHg 94%
22:00 +6°C° 0 mm 2 mps 757 mmHg 95%
23:00 +6°C° 0 mm 2 mps 757 mmHg 94%

Day after tomorrow, 18 April, Sunday

Time Temperature Precipitation Wind Pressure Humidity
00:00 +7°C° 0 mm 2 mps 757 mmHg 94%
01:00 +7°C° 0 mm 2 mps 756 mmHg 93%
02:00 +7°C° 0.1 mm 2 mps 756 mmHg 94%
03:00 +7°C° 0.1 mm 2 mps 756 mmHg 95%
04:00 +7°C° 0.1 mm 2 mps 756 mmHg 95%
05:00 +7°C° 0 mm 3 mps 757 mmHg 93%
06:00 +7°C° 0 mm 3 mps 757 mmHg 91%
07:00 +8°C° 0 mm 3 mps 757 mmHg 89%
08:00 +9°C° 0 mm 3 mps 757 mmHg 82%
09:00 +11°C° 0 mm 3 mps 757 mmHg 76%
10:00 +12°C° 0 mm 4 mps 757 mmHg 69%
11:00 +13°C° 0.3 mm 4 mps 757 mmHg 66%
12:00 +14°C° 0.3 mm 4 mps 757 mmHg 63%
13:00 +14°C° 0.3 mm 4 mps 757 mmHg 60%
14:00 +14°C° 0.2 mm 4 mps 756 mmHg 62%
15:00 +14°C° 0.2 mm 4 mps 756 mmHg 64%
16:00 +14°C° 0.2 mm 4 mps 756 mmHg 66%
17:00 +12°C° 0.1 mm 3 mps 756 mmHg 72%
18:00 +11°C° 0.1 mm 3 mps 756 mmHg 77%
19:00 +10°C° 0.1 mm 3 mps 757 mmHg 83%
20:00 +9°C° 0 mm 3 mps 757 mmHg 85%
21:00 +9°C° 0 mm 3 mps 757 mmHg 87%
22:00 +8°C° 0 mm 3 mps 757 mmHg 89%
23:00 +8°C° 0 mm 3 mps 757 mmHg 90%

19 April, Monday

Time Temperature Precipitation Wind Pressure Humidity
00:00 +7°C° 0 mm 2 mps 757 mmHg 91%
01:00 +7°C° 0 mm 2 mps 757 mmHg 91%
02:00 +6°C° 0 mm 2 mps 757 mmHg 92%
03:00 +6°C° 0 mm 2 mps 756 mmHg 92%
04:00 +5°C° 0 mm 2 mps 756 mmHg 92%
05:00 +5°C° 0 mm 3 mps 756 mmHg 87%
06:00 +7°C° 0 mm 3 mps 756 mmHg 83%
07:00 +8°C° 0 mm 3 mps 756 mmHg 78%
08:00 +10°C° 0 mm 3 mps 756 mmHg 72%
09:00 +12°C° 0 mm 3 mps 756 mmHg 66%
10:00 +14°C° 0 mm 3 mps 756 mmHg 60%
11:00 +16°C° 0.1 mm 3 mps 755 mmHg 55%
12:00 +16°C° 0.1 mm 3 mps 755 mmHg 50%
13:00 +17°C° 0.1 mm 3 mps 755 mmHg 46%
14:00 +17°C° 0.1 mm 3 mps 754 mmHg 49%
15:00 +16°C° 0.1 mm 3 mps 754 mmHg 52%
16:00 +15°C° 0.1 mm 4 mps 754 mmHg 55%
17:00 +13°C° 0.1 mm 3 mps 754 mmHg 61%
18:00 +11°C° 0.1 mm 3 mps 754 mmHg 68%
19:00 +9°C° 0.1 mm 3 mps 753 mmHg 74%
20:00 +9°C° 0 mm 3 mps 753 mmHg 78%
21:00 +8°C° 0 mm 3 mps 753 mmHg 82%
22:00 +7°C° 0 mm 2 mps 753 mmHg 86%
23:00 +7°C° 0 mm 2 mps 753 mmHg 85%

20 April, Tuesday

Time Temperature Precipitation Wind Pressure Humidity
00:00 +7°C° 0 mm 2 mps 753 mmHg 85%
01:00 +9°C° 0 mm 1 mps 753 mmHg 85%
02:00 +9°C° 0 mm 1 mps 753 mmHg 84%
03:00 +8°C° 0 mm 1 mps 752 mmHg 84%
04:00 +8°C° 0 mm 1 mps 752 mmHg 84%
05:00 +8°C° 0 mm 2 mps 752 mmHg 82%
06:00 +8°C° 0 mm 2 mps 752 mmHg 79%
07:00 +8°C° 0 mm 2 mps 752 mmHg 77%
08:00 +9°C° 0 mm 3 mps 752 mmHg 69%
09:00 +11°C° 0 mm 3 mps 752 mmHg 61%
10:00 +12°C° 0 mm 3 mps 752 mmHg 53%
11:00 +13°C° 0 mm 3 mps 751 mmHg 51%
12:00 +13°C° 0 mm 3 mps 751 mmHg 50%
13:00 +13°C° 0 mm 3 mps 750 mmHg 48%
14:00 +13°C° 0 mm 3 mps 750 mmHg 52%
15:00 +12°C° 0 mm 4 mps 750 mmHg 55%
16:00 +12°C° 0 mm 4 mps 750 mmHg 58%
17:00 +11°C° 0 mm 4 mps 750 mmHg 64%
18:00 +8°C° 0 mm 4 mps 750 mmHg 69%
19:00 +7°C° 0 mm 4 mps 750 mmHg 74%
20:00 +7°C° 0 mm 3 mps 750 mmHg 80%
21:00 +4°C° 0 mm 3 mps 750 mmHg 85%
22:00 +3°C° 0 mm 3 mps 750 mmHg 91%
23:00 +3°C° 0 mm 3 mps 750 mmHg 92%

21 April, Wednesday

Time Temperature Precipitation Wind Pressure Humidity
00:00 +3°C° 0 mm 2 mps 750 mmHg 93%
01:00 +3°C° 0 mm 2 mps 750 mmHg 94%
02:00 +3°C° 0 mm 2 mps 750 mmHg 93%
03:00 +3°C° 0 mm 2 mps 750 mmHg 93%
04:00 +3°C° 0 mm 2 mps 749 mmHg 92%
05:00 +4°C° 0 mm 2 mps 749 mmHg 87%
06:00 +4°C° 0 mm 3 mps 750 mmHg 82%
07:00 +7°C° 0 mm 3 mps 750 mmHg 77%
08:00 +7°C° 0 mm 4 mps 750 mmHg 71%
09:00 +9°C° 0 mm 5 mps 750 mmHg 64%
10:00 +10°C° 0 mm 5 mps 750 mmHg 57%
11:00 +10°C° 0.1 mm 5 mps 749 mmHg 55%
12:00 +12°C° 0.1 mm 5 mps 749 mmHg 53%
13:00 +12°C° 0.1 mm 4 mps 749 mmHg 50%
14:00 +12°C° 0 mm 4 mps 749 mmHg 51%
15:00 +13°C° 0 mm 4 mps 749 mmHg 52%
16:00 +13°C° 0 mm 3 mps 749 mmHg 53%
17:00 +11°C° 0.1 mm 3 mps 749 mmHg 61%
18:00 +10°C° 0.1 mm 3 mps 749 mmHg 69%
19:00 +8°C° 0.1 mm 3 mps 749 mmHg 77%
20:00 +8°C° 0 mm 3 mps 749 mmHg 76%
21:00 +8°C° 0 mm 3 mps 750 mmHg 76%
22:00 +6°C° 0 mm 4 mps 750 mmHg 76%
23:00 +5°C° 0 mm 4 mps 750 mmHg 75%
Show more